Satellite: CUTE1-7
Catalog number: 32785
Epoch time:      08138.72348253
Element set:      52
Inclination:      097.9942 deg
RA of node:       198.7150 deg
Eccentricity:    0.0014115
Arg of perigee:   231.5844 deg
Mean anomaly:     128.4100 deg
Mean motion:   14.81355211 rev/day
Decay rate:       -1.2e-07 rev/day^2
Epoch rev:             289
Checksum:              285

Satellite: COMPASS
Catalog number: 32787
Epoch time:      08136.83161411
Element set:    0050
Inclination:      097.9906 deg
RA of node:       196.8149 deg
Eccentricity:    0.0014852
Arg of perigee:   240.9341 deg
Mean anomaly:     119.0377 deg
Mean motion:   14.81402909 rev/day
Decay rate:       1.58e-06 rev/day^2
Epoch rev:           00261
Checksum:              294

Satellite: AAUSAT2
Catalog number: 32788
Epoch time:      08138.85653900
Element set:      44
Inclination:      097.9914 deg
RA of node:       198.8372 deg
Eccentricity:    0.0014372
Arg of perigee:   231.3827 deg
Mean anomaly:     128.6096 deg
Mean motion:   14.81510869 rev/day
Decay rate:       1.50e-06 rev/day^2
Epoch rev:             291
Checksum:              316

Satellite: DELFIC3
Catalog number: 32789
Epoch time:      08137.91270232
Element set:    0054
Inclination:      097.9933 deg
RA of node:       197.8998 deg
Eccentricity:    0.0014765
Arg of perigee:   235.7884 deg
Mean anomaly:     124.1931 deg
Mean motion:   14.81377044 rev/day
Decay rate:       2.11e-06 rev/day^2
Epoch rev:           00277
Checksum:              326

Satellite: SEEDS
Catalog number: 32791
Epoch time:      08138.18427642
Element set:      39
Inclination:      097.9948 deg
RA of node:       198.1686 deg
Eccentricity:    0.0015206
Arg of perigee:   232.7516 deg
Mean anomaly:     127.2307 deg
Mean motion:   14.81264750 rev/day
Decay rate:       1.40e-06 rev/day^2
Epoch rev:             278
Checksum:              304

Satellite: CANX-2
Catalog number: 32797
Epoch time:      08136.96730692
Element set:    0031
Inclination:      097.9945 deg
RA of node:       196.9610 deg
Eccentricity:    0.0014327
Arg of perigee:   238.4303 deg
Mean anomaly:     121.5499 deg
Mean motion:   14.81350511 rev/day
Decay rate:      -1.44e-06 rev/day^2
Epoch rev:           00131
Checksum:              294

/EX



_______________________________________________
Via the Keps mailing list courtesy of AMSAT-NA
http://amsat.org/mailman/listinfo/keps

--- ViaMAIL!/WC v1.60d
 * Origin: Chowdanet (401-724-4410) telnet://chowdanet.com  (1:323/120)